Torna al catalogo

STARLINK-5703

AttivoComunicazioniVLEO
NORAD 55593·PAYLOAD·🇺🇸 United States

Lanciato Feb 12, 2023 da Cape Canaveral Space Force Station

Loading…

Prossimi Passaggi (prossime 24 ore)

TLE

AggiornatoSource: CelesTrak SupGP

Epoca: Sep 15, 2026, 01:38 UTC

1 55593C 23020AA  26258.06854167 -.00032438  00000+0 -11749-2 0  2587
2 55593  43.0021  15.3313 0001312 269.6307 319.2829 15.27593487    11

Traccia STARLINK-5703 in tempo reale con AllMySat

Download on the App Store